SKW3387 KSAN-KSFO

Flight info

Callsign SKW3387
Flight time 1h 1m
Altitude 32000
Route PADRZ2 IKAYE RIZIN SPLNT STOKD SERFR SERFR4
Aircraft E75L/M-SDE3GILORVW/S

Departure

Time 2026-04-20 03:27
Airport San Diego International Airport (KSAN)

Arrival

Time 2026-04-20 04:29
Airport San Francisco International Airport (KSFO)
Time Latitude Longitude Altitude Speed Heading
2026-04-20 03:08 32.73419 -117.20077 21 ft 0 kts 211°
2026-04-20 03:18 32.73421 -117.20075 21 ft 2 kts 211°
2026-04-20 03:18 32.73443 -117.20060 21 ft 4 kts 211°
2026-04-20 03:19 32.73466 -117.20043 22 ft 4 kts 211°
2026-04-20 03:19 32.73485 -117.20029 22 ft 4 kts 209°
2026-04-20 03:19 32.73507 -117.20027 22 ft 4 kts 133°
2026-04-20 03:19 32.73516 -117.20054 22 ft 3 kts 106°
2026-04-20 03:20 32.73517 -117.20058 23 ft 0 kts 106°
2026-04-20 03:22 32.73515 -117.20049 22 ft 3 kts 106°
2026-04-20 03:22 32.73504 -117.20004 20 ft 8 kts 106°
2026-04-20 03:22 32.73484 -117.19921 21 ft 13 kts 106°
2026-04-20 03:23 32.73466 -117.19846 21 ft 16 kts 106°
2026-04-20 03:23 32.73433 -117.19711 21 ft 18 kts 104°
2026-04-20 03:23 32.73396 -117.19555 21 ft 21 kts 106°
2026-04-20 03:23 32.73353 -117.19382 20 ft 23 kts 105°
2026-04-20 03:24 32.73306 -117.19190 20 ft 25 kts 105°
2026-04-20 03:24 32.73261 -117.18997 20 ft 25 kts 106°
2026-04-20 03:24 32.73211 -117.18792 22 ft 27 kts 106°
2026-04-20 03:24 32.73157 -117.18573 25 ft 29 kts 107°
2026-04-20 03:25 32.73100 -117.18340 22 ft 30 kts 106°
2026-04-20 03:25 32.73040 -117.18093 24 ft 32 kts 106°
2026-04-20 03:25 32.72980 -117.17857 23 ft 26 kts 107°
2026-04-20 03:25 32.72948 -117.17704 22 ft 12 kts 87°
2026-04-20 03:26 32.72980 -117.17613 24 ft 8 kts 49°
2026-04-20 03:26 32.73028 -117.17617 23 ft 8 kts 299°
2026-04-20 03:26 32.73064 -117.17764 25 ft 46 kts 285°
2026-04-20 03:26 32.73225 -117.18431 23 ft 120 kts 285°
2026-04-20 03:27 32.73519 -117.19574 289 ft 158 kts 290°
2026-04-20 03:27 32.73918 -117.20883 909 ft 182 kts 291°
2026-04-20 03:27 32.74509 -117.22257 1670 ft 190 kts 300°
2026-04-20 03:27 32.75232 -117.23614 2348 ft 199 kts 302°
2026-04-20 03:28 32.76024 -117.25020 3001 ft 209 kts 303°
2026-04-20 03:28 32.76862 -117.26487 3692 ft 220 kts 303°
2026-04-20 03:28 32.78720 -117.29718 5033 ft 260 kts 302°
2026-04-20 03:29 32.79785 -117.31559 5661 ft 279 kts 302°
2026-04-20 03:29 32.80941 -117.33462 6526 ft 288 kts 305°
2026-04-20 03:29 32.82183 -117.35342 7477 ft 290 kts 306°
2026-04-20 03:29 32.83430 -117.37233 8419 ft 291 kts 306°
2026-04-20 03:30 32.84679 -117.39148 9268 ft 295 kts 306°
2026-04-20 03:30 32.85937 -117.41092 10042 ft 298 kts 306°
2026-04-20 03:30 32.87236 -117.43107 10360 ft 318 kts 306°
2026-04-20 03:30 32.88621 -117.45261 10600 ft 337 kts 306°
2026-04-20 03:31 32.90083 -117.47531 10926 ft 351 kts 306°
2026-04-20 03:31 32.91578 -117.49855 11530 ft 356 kts 306°
2026-04-20 03:31 32.93088 -117.52201 12216 ft 358 kts 306°
2026-04-20 03:31 32.94608 -117.54570 12929 ft 362 kts 306°
2026-04-20 03:32 32.96141 -117.56960 13615 ft 365 kts 306°
2026-04-20 03:32 32.97697 -117.59388 14179 ft 372 kts 306°
2026-04-20 03:32 32.99271 -117.61847 14897 ft 374 kts 306°
2026-04-20 03:32 33.00852 -117.64313 15678 ft 374 kts 305°
2026-04-20 03:33 33.02434 -117.66786 16398 ft 376 kts 305°
2026-04-20 03:33 33.04026 -117.69278 17057 ft 379 kts 305°
2026-04-20 03:33 33.05631 -117.71789 17713 ft 383 kts 306°
2026-04-20 03:33 33.07464 -117.74118 18318 ft 388 kts 315°
2026-04-20 03:34 33.09512 -117.76230 18927 ft 391 kts 318°
2026-04-20 03:34 33.11605 -117.78316 19583 ft 392 kts 318°
2026-04-20 03:34 33.13695 -117.80415 20260 ft 394 kts 318°
2026-04-20 03:34 33.15792 -117.82535 20927 ft 396 kts 318°
2026-04-20 03:35 33.17898 -117.84670 21580 ft 398 kts 318°
2026-04-20 03:35 33.20015 -117.86825 22185 ft 401 kts 317°
2026-04-20 03:35 33.22036 -117.89133 22762 ft 403 kts 313°
2026-04-20 03:35 33.23988 -117.91543 23338 ft 405 kts 313°
2026-04-20 03:36 33.25958 -117.93957 23859 ft 407 kts 313°
2026-04-20 03:36 33.27951 -117.96365 24357 ft 408 kts 314°
2026-04-20 03:36 33.29958 -117.98774 24862 ft 410 kts 314°
2026-04-20 03:36 33.31974 -118.01188 25365 ft 411 kts 314°
2026-04-20 03:37 33.34001 -118.03611 25862 ft 413 kts 314°
2026-04-20 03:37 33.36035 -118.06046 26341 ft 415 kts 314°
2026-04-20 03:37 33.38075 -118.08488 26818 ft 416 kts 314°
2026-04-20 03:37 33.40129 -118.10948 27262 ft 418 kts 314°
2026-04-20 03:38 33.42189 -118.13419 27721 ft 420 kts 314°
2026-04-20 03:38 33.44256 -118.15900 28121 ft 422 kts 314°
2026-04-20 03:38 33.46334 -118.18395 28524 ft 423 kts 314°
2026-04-20 03:38 33.48415 -118.20895 28911 ft 425 kts 314°
2026-04-20 03:39 33.50506 -118.23410 29257 ft 427 kts 314°
2026-04-20 03:39 33.52608 -118.25940 29631 ft 429 kts 314°
2026-04-20 03:39 33.54707 -118.28467 30150 ft 426 kts 314°
2026-04-20 03:39 33.56761 -118.30943 30612 ft 424 kts 314°
2026-04-20 03:40 33.58836 -118.33445 31047 ft 422 kts 314°
2026-04-20 03:40 33.60927 -118.35968 31472 ft 420 kts 314°
2026-04-20 03:40 33.62955 -118.38418 31865 ft 419 kts 313°
2026-04-20 03:40 33.65006 -118.40897 32073 ft 422 kts 313°
2026-04-20 03:41 33.69183 -118.45953 32041 ft 429 kts 313°
2026-04-20 03:41 33.73390 -118.51052 31977 ft 430 kts 313°
2026-04-20 03:42 33.77605 -118.56167 31975 ft 431 kts 313°
2026-04-20 03:42 33.81819 -118.61289 31976 ft 431 kts 313°
2026-04-20 03:43 33.86030 -118.66416 31975 ft 431 kts 313°
2026-04-20 03:43 33.90237 -118.71545 31978 ft 431 kts 313°
2026-04-20 03:44 33.94446 -118.76684 31978 ft 431 kts 313°
2026-04-20 03:44 33.98654 -118.81829 31979 ft 431 kts 313°
2026-04-20 03:45 34.02860 -118.86980 31967 ft 431 kts 313°
2026-04-20 03:45 34.07067 -118.92140 31981 ft 431 kts 313°
2026-04-20 03:46 34.11270 -118.97303 31975 ft 432 kts 313°
2026-04-20 03:46 34.15196 -119.02748 32001 ft 430 kts 302°
2026-04-20 03:47 34.18392 -119.08879 31967 ft 438 kts 301°
2026-04-20 03:47 34.21613 -119.15156 31971 ft 440 kts 301°
2026-04-20 03:48 34.24844 -119.21455 31981 ft 441 kts 300°
2026-04-20 03:48 34.28073 -119.27758 31963 ft 441 kts 300°
2026-04-20 03:49 34.31304 -119.34076 31967 ft 441 kts 300°
2026-04-20 03:49 34.34532 -119.40398 31969 ft 441 kts 300°
2026-04-20 03:50 34.37752 -119.46719 31976 ft 441 kts 300°
2026-04-20 03:50 34.41040 -119.52995 31977 ft 444 kts 306°
2026-04-20 03:51 34.45290 -119.58448 31968 ft 445 kts 312°
2026-04-20 03:51 34.49646 -119.63778 31956 ft 445 kts 312°
2026-04-20 03:52 34.53998 -119.69121 31955 ft 445 kts 312°
2026-04-20 03:52 34.58347 -119.74470 31967 ft 445 kts 312°
2026-04-20 03:53 34.62694 -119.79829 31956 ft 445 kts 312°
2026-04-20 03:53 34.67041 -119.85195 31977 ft 446 kts 311°
2026-04-20 03:54 34.71391 -119.90567 31973 ft 446 kts 311°
2026-04-20 03:54 34.75742 -119.95951 31973 ft 446 kts 311°
2026-04-20 03:55 34.80088 -120.01342 31991 ft 446 kts 311°
2026-04-20 03:55 34.84438 -120.06743 31993 ft 447 kts 311°
2026-04-20 03:56 34.88781 -120.12146 31989 ft 447 kts 311°
2026-04-20 03:56 34.93128 -120.17563 31981 ft 446 kts 311°
2026-04-20 03:57 34.97470 -120.22981 31999 ft 447 kts 311°
2026-04-20 03:57 35.01809 -120.28402 32008 ft 446 kts 311°
2026-04-20 03:58 35.06151 -120.33840 32005 ft 447 kts 311°
2026-04-20 03:58 35.10489 -120.39217 32011 ft 448 kts 313°
2026-04-20 03:59 35.15166 -120.44368 32008 ft 450 kts 314°
2026-04-20 03:59 35.19767 -120.49473 31992 ft 450 kts 313°
2026-04-20 04:00 35.24375 -120.54645 31990 ft 450 kts 313°
2026-04-20 04:00 35.28979 -120.59829 31996 ft 450 kts 313°
2026-04-20 04:01 35.33582 -120.65021 32007 ft 449 kts 313°
2026-04-20 04:01 35.38178 -120.70212 31996 ft 450 kts 313°
2026-04-20 04:02 35.42809 -120.75449 31995 ft 450 kts 313°
2026-04-20 04:02 35.47406 -120.80659 32018 ft 450 kts 313°
2026-04-20 04:03 35.52308 -120.85415 32012 ft 454 kts 319°
2026-04-20 04:03 35.57346 -120.90080 32021 ft 454 kts 319°
2026-04-20 04:04 35.62386 -120.94753 31999 ft 454 kts 319°
2026-04-20 04:04 35.67420 -120.99433 32003 ft 454 kts 318°
2026-04-20 04:05 35.72455 -121.04125 31998 ft 454 kts 318°
2026-04-20 04:05 35.77495 -121.08823 32001 ft 455 kts 318°
2026-04-20 04:06 35.82535 -121.13531 31992 ft 455 kts 318°
2026-04-20 04:06 35.87568 -121.18241 31989 ft 454 kts 318°
2026-04-20 04:07 35.92608 -121.22965 31979 ft 457 kts 318°
2026-04-20 04:07 35.97657 -121.27702 31988 ft 455 kts 317°
2026-04-20 04:08 36.01843 -121.31638 31982 ft 456 kts 317°
2026-04-20 04:08 36.06882 -121.36384 31978 ft 455 kts 317°
2026-04-20 04:09 36.12090 -121.40594 31987 ft 446 kts 323°
2026-04-20 04:09 36.14729 -121.42585 31773 ft 443 kts 323°
2026-04-20 04:09 36.17340 -121.44583 31463 ft 439 kts 322°
2026-04-20 04:10 36.19927 -121.46594 30879 ft 442 kts 322°
2026-04-20 04:10 36.22530 -121.48634 30286 ft 442 kts 322°
2026-04-20 04:10 36.25111 -121.50662 29602 ft 436 kts 322°
2026-04-20 04:10 36.27655 -121.52671 29099 ft 434 kts 322°
2026-04-20 04:11 36.30209 -121.54672 28507 ft 434 kts 322°
2026-04-20 04:11 36.32753 -121.56671 27920 ft 432 kts 322°
2026-04-20 04:11 36.35284 -121.58661 27371 ft 429 kts 322°
2026-04-20 04:11 36.37799 -121.60643 26779 ft 428 kts 322°
2026-04-20 04:12 36.40305 -121.62619 26234 ft 426 kts 322°
2026-04-20 04:12 36.42800 -121.64588 25656 ft 425 kts 322°
2026-04-20 04:12 36.45290 -121.66556 25092 ft 424 kts 322°
2026-04-20 04:12 36.47774 -121.68521 24538 ft 423 kts 322°
2026-04-20 04:13 36.50245 -121.70474 23970 ft 418 kts 322°
2026-04-20 04:13 36.52685 -121.72404 23385 ft 414 kts 322°
2026-04-20 04:13 36.55101 -121.74314 22878 ft 410 kts 322°
2026-04-20 04:13 36.57505 -121.76217 22300 ft 409 kts 322°
2026-04-20 04:14 36.59896 -121.78108 21783 ft 407 kts 322°
2026-04-20 04:14 36.62281 -121.79997 21256 ft 405 kts 322°
2026-04-20 04:14 36.64659 -121.81881 20663 ft 404 kts 322°
2026-04-20 04:14 36.67019 -121.83752 20162 ft 401 kts 322°
2026-04-20 04:15 36.69366 -121.85617 19616 ft 399 kts 322°
2026-04-20 04:15 36.71699 -121.87469 19092 ft 396 kts 322°
2026-04-20 04:15 36.74070 -121.89212 18581 ft 398 kts 331°
2026-04-20 04:15 36.76717 -121.90278 18060 ft 401 kts 342°
2026-04-20 04:16 36.79445 -121.91016 17510 ft 400 kts 345°
2026-04-20 04:16 36.82164 -121.91705 16981 ft 397 kts 345°
2026-04-20 04:16 36.84844 -121.92415 16541 ft 392 kts 345°
2026-04-20 04:16 36.87477 -121.93133 15992 ft 391 kts 345°
2026-04-20 04:17 36.90123 -121.93868 15476 ft 388 kts 345°
2026-04-20 04:17 36.92743 -121.94602 14962 ft 384 kts 345°
2026-04-20 04:17 36.95333 -121.95333 14453 ft 378 kts 345°
2026-04-20 04:17 36.97803 -121.96179 13958 ft 359 kts 339°
2026-04-20 04:18 37.00122 -121.97137 13465 ft 344 kts 339°
2026-04-20 04:18 37.02354 -121.98055 13047 ft 331 kts 339°
2026-04-20 04:18 37.04538 -121.98938 12634 ft 331 kts 339°
2026-04-20 04:18 37.06734 -121.99816 12162 ft 332 kts 340°
2026-04-20 04:19 37.08938 -122.00678 11720 ft 331 kts 340°
2026-04-20 04:19 37.11123 -122.01534 11273 ft 328 kts 340°
2026-04-20 04:19 37.13292 -122.02378 10849 ft 325 kts 340°
2026-04-20 04:19 37.15441 -122.03218 10409 ft 322 kts 340°
2026-04-20 04:20 37.17576 -122.04057 9964 ft 320 kts 341°
2026-04-20 04:20 37.19695 -122.04872 9531 ft 317 kts 341°
2026-04-20 04:20 37.21793 -122.05687 9114 ft 313 kts 341°
2026-04-20 04:20 37.23859 -122.06506 8713 ft 309 kts 341°
2026-04-20 04:21 37.25908 -122.07318 8301 ft 308 kts 341°
2026-04-20 04:21 37.27939 -122.08130 7872 ft 306 kts 341°
2026-04-20 04:21 37.29941 -122.08901 7470 ft 296 kts 341°
2026-04-20 04:21 37.31878 -122.09666 7118 ft 290 kts 340°
2026-04-20 04:22 37.33813 -122.10444 6729 ft 294 kts 341°
2026-04-20 04:22 37.35771 -122.11208 6315 ft 295 kts 341°
2026-04-20 04:22 37.37732 -122.11975 5915 ft 293 kts 341°
2026-04-20 04:22 37.39679 -122.12682 5554 ft 291 kts 343°
2026-04-20 04:23 37.41640 -122.13330 5127 ft 291 kts 344°
2026-04-20 04:23 37.43569 -122.13970 4715 ft 280 kts 343°
2026-04-20 04:23 37.45403 -122.14588 4343 ft 266 kts 343°
2026-04-20 04:23 37.47163 -122.15175 4040 ft 258 kts 343°
2026-04-20 04:24 37.48869 -122.15732 3711 ft 247 kts 344°
2026-04-20 04:24 37.50507 -122.16268 3354 ft 240 kts 343°
2026-04-20 04:24 37.52107 -122.16791 3100 ft 236 kts 343°
2026-04-20 04:24 37.53539 -122.17684 2961 ft 224 kts 316°
2026-04-20 04:25 37.54482 -122.19214 3001 ft 225 kts 292°
2026-04-20 04:25 37.55136 -122.21003 2663 ft 222 kts 292°
2026-04-20 04:25 37.55866 -122.22616 2382 ft 201 kts 296°
2026-04-20 04:25 37.56506 -122.24090 2112 ft 186 kts 292°
2026-04-20 04:26 37.57088 -122.25540 1865 ft 185 kts 293°
2026-04-20 04:26 37.57685 -122.26931 1609 ft 172 kts 295°
2026-04-20 04:26 37.58213 -122.28190 1391 ft 153 kts 294°
2026-04-20 04:26 37.58683 -122.29323 1162 ft 139 kts 295°
2026-04-20 04:27 37.59122 -122.30370 980 ft 132 kts 294°
2026-04-20 04:27 37.59540 -122.31399 803 ft 134 kts 294°
2026-04-20 04:27 37.59981 -122.32453 634 ft 138 kts 294°
2026-04-20 04:27 37.60434 -122.33530 455 ft 140 kts 295°
2026-04-20 04:28 37.60895 -122.34621 264 ft 140 kts 294°
2026-04-20 04:28 37.61345 -122.35706 85 ft 139 kts 295°
2026-04-20 04:28 37.61772 -122.36729 20 ft 120 kts 298°
2026-04-20 04:28 37.62111 -122.37523 20 ft 84 kts 297°
2026-04-20 04:29 37.62326 -122.38040 20 ft 41 kts 298°
2026-04-20 04:29 37.62371 -122.38190 20 ft 10 kts 246°
2026-04-20 04:29 37.62312 -122.38244 20 ft 12 kts 204°
2026-04-20 04:29 37.62232 -122.38291 21 ft 14 kts 205°
2026-04-20 04:30 37.62154 -122.38341 20 ft 7 kts 207°
2026-04-20 04:30 37.62104 -122.38376 21 ft 10 kts 209°
2026-04-20 04:30 37.62067 -122.38445 20 ft 11 kts 285°
2026-04-20 04:30 37.62089 -122.38535 20 ft 10 kts 256°
2026-04-20 04:31 37.62036 -122.38584 20 ft 8 kts 205°
2026-04-20 04:31 37.62012 -122.38616 20 ft 4 kts 274°
2026-04-20 04:31 37.62023 -122.38654 20 ft 3 kts 287°
2026-04-20 04:31 37.62026 -122.38669 22 ft 2 kts 288°
2026-04-20 04:32 37.62027 -122.38671 22 ft 0 kts 288°